Location: Balaclava NSW 2575, Australia
(34.4510°S, 150.4953°E)
Time: 18:59:13
(UTC+10:00)

Vanguard 2 - Pass Details

Date: 23 June 2021
Orbit: 552 x 2937 km, 32.9° (Epoch: 24 July)

Event Time Altitude Azimuth Distance (km) Brightness Sun altitude
Rises 09:32:04 0° 260° (W) 4,576 11.1 22.3°
Reaches altitude 10° 09:34:43 10° 264° (W) 3,864 10.8 22.6°
Maximum altitude 09:45:19 59° 339° (NNW) 2,522 10.8 23.9°
Drops below altitude 10° 10:01:24 10° 52° (NE) 5,649 13.3 25.6°
Sets 10:06:12 0° 55° (NE) 6,762 13.3 26.1°
